Location: Carrer del Canonge
(41.4901°N, 2.2931°E)
Time: 04:23:24
(UTC+00:00)

Cosmos 2084 Rocket - Pass Details

Date: 18 September 2020
Orbit: 545 x 635 km, 62.8° (Epoch: 25 October)

Event Time Altitude Azimuth Distance (km) Brightness Sun altitude
Rises 19:10:17 0° 321° (NW) 2,865 7.9 -14.9°
Reaches altitude 10° 19:12:33 10° 318° (NW) 1,971 7.0 -15.3°
Maximum altitude 19:16:59 65° 237° (WSW) 685 3.9 -16.1°
Enters shadow 19:20:28 17° 159° (SSE) 1,612 5.3 -16.7°
